AFL601 UDYZ-URSS

Flight info

Callsign AFL601
Flight time 1h 9m
Altitude 34000
Route TIBLO T918 OGEVI DCT BANUT
Aircraft A320/M-SDE3FGHIRWY/LB1

Departure

Time 2026-05-06 18:17
Airport Zvartnots International Airport (UDYZ)

Arrival

Time 2026-05-06 19:27
Airport Sochi International Airport (URSS)
Time Latitude Longitude Altitude Speed Heading
2026-05-06 18:00 40.15091 44.40013 2841 ft 0 kts 359°
2026-05-06 18:10 40.15090 44.40013 2814 ft 2 kts 359°
2026-05-06 18:10 40.15075 44.40014 2833 ft 2 kts 359°
2026-05-06 18:11 40.15061 44.40014 2846 ft 2 kts 359°
2026-05-06 18:11 40.15046 44.40014 2839 ft 3 kts 359°
2026-05-06 18:11 40.15027 44.40014 2840 ft 3 kts
2026-05-06 18:11 40.15004 44.40005 2839 ft 5 kts 49°
2026-05-06 18:12 40.14981 44.39969 2838 ft 5 kts 71°
2026-05-06 18:12 40.14979 44.39957 2838 ft 0 kts 88°
2026-05-06 18:13 40.14979 44.39958 2838 ft 2 kts 88°
2026-05-06 18:13 40.14978 44.40038 2841 ft 13 kts 93°
2026-05-06 18:14 40.14979 44.40185 2841 ft 23 kts 90°
2026-05-06 18:14 40.14981 44.40416 2841 ft 28 kts 90°
2026-05-06 18:14 40.14983 44.40700 2841 ft 35 kts 89°
2026-05-06 18:14 40.14983 44.41035 2841 ft 38 kts 90°
2026-05-06 18:15 40.14989 44.41342 2841 ft 33 kts 89°
2026-05-06 18:15 40.14991 44.41605 2841 ft 22 kts 88°
2026-05-06 18:15 40.14937 44.41744 2840 ft 2 kts 147°
2026-05-06 18:15 40.14901 44.41773 2840 ft 12 kts 146°
2026-05-06 18:16 40.14833 44.41826 2841 ft 11 kts 154°
2026-05-06 18:16 40.14766 44.41806 2842 ft 11 kts 209°
2026-05-06 18:16 40.14739 44.41673 2841 ft 33 kts 272°
2026-05-06 18:16 40.14737 44.41037 2838 ft 104 kts 269°
2026-05-06 18:17 40.14733 44.39838 2842 ft 157 kts 270°
2026-05-06 18:17 40.14654 44.38332 3301 ft 169 kts 261°
2026-05-06 18:17 40.14528 44.36803 4011 ft 168 kts 270°
2026-05-06 18:17 40.14541 44.35220 4490 ft 183 kts 273°
2026-05-06 18:18 40.14921 44.33560 4762 ft 205 kts 304°
2026-05-06 18:18 40.15793 44.31958 5158 ft 225 kts 306°
2026-05-06 18:18 40.16704 44.30274 5972 ft 229 kts 305°
2026-05-06 18:18 40.17618 44.28549 6824 ft 232 kts 304°
2026-05-06 18:19 40.18528 44.26796 7690 ft 233 kts 303°
2026-05-06 18:19 40.19427 44.25034 8556 ft 235 kts 302°
2026-05-06 18:19 40.20309 44.23292 9427 ft 237 kts 302°
2026-05-06 18:19 40.21226 44.21473 10268 ft 241 kts 302°
2026-05-06 18:20 40.22207 44.19595 10701 ft 262 kts 303°
2026-05-06 18:20 40.23303 44.17559 11102 ft 285 kts 303°
2026-05-06 18:20 40.24507 44.15342 11434 ft 309 kts 303°
2026-05-06 18:20 40.25794 44.12967 11862 ft 328 kts 303°
2026-05-06 18:21 40.27125 44.10501 12597 ft 335 kts 303°
2026-05-06 18:21 40.28476 44.07986 13390 ft 340 kts 303°
2026-05-06 18:21 40.29847 44.05429 14158 ft 345 kts 302°
2026-05-06 18:21 40.31230 44.02848 14889 ft 348 kts 302°
2026-05-06 18:22 40.32626 44.00239 15620 ft 351 kts 302°
2026-05-06 18:22 40.34034 43.97603 16352 ft 355 kts 302°
2026-05-06 18:22 40.35452 43.94943 17084 ft 358 kts 302°
2026-05-06 18:22 40.36977 43.92600 17765 ft 365 kts 314°
2026-05-06 18:23 40.38997 43.90553 18455 ft 372 kts 326°
2026-05-06 18:23 40.41359 43.89116 19070 ft 379 kts 339°
2026-05-06 18:23 40.43956 43.88401 19686 ft 386 kts 353°
2026-05-06 18:23 40.46652 43.88145 20308 ft 389 kts 353°
2026-05-06 18:24 40.49353 43.87835 20916 ft 392 kts 352°
2026-05-06 18:24 40.52080 43.87479 21504 ft 395 kts 352°
2026-05-06 18:24 40.54821 43.87102 22081 ft 398 kts 351°
2026-05-06 18:24 40.57587 43.86719 22643 ft 402 kts 351°
2026-05-06 18:25 40.60167 43.86365 23150 ft 405 kts 351°
2026-05-06 18:25 40.62982 43.85973 23692 ft 408 kts 351°
2026-05-06 18:25 40.65821 43.85606 24133 ft 412 kts 352°
2026-05-06 18:25 40.68684 43.85250 24571 ft 415 kts 352°
2026-05-06 18:26 40.71568 43.84894 25001 ft 419 kts 351°
2026-05-06 18:26 40.74470 43.84529 25432 ft 422 kts 351°
2026-05-06 18:26 40.77306 43.84144 25836 ft 425 kts 350°
2026-05-06 18:26 40.80246 43.83701 26257 ft 428 kts 349°
2026-05-06 18:27 40.83212 43.83235 26672 ft 431 kts 349°
2026-05-06 18:27 40.86221 43.82768 27095 ft 434 kts 349°
2026-05-06 18:27 40.89214 43.82327 27505 ft 437 kts 350°
2026-05-06 18:27 40.92253 43.81884 27906 ft 440 kts 349°
2026-05-06 18:28 40.95312 43.81432 28324 ft 444 kts 349°
2026-05-06 18:28 40.98385 43.80971 28726 ft 447 kts 349°
2026-05-06 18:28 41.01487 43.80500 29121 ft 449 kts 349°
2026-05-06 18:28 41.04601 43.80027 29526 ft 452 kts 349°
2026-05-06 18:29 41.07683 43.79296 29890 ft 450 kts 340°
2026-05-06 18:29 41.10617 43.77902 30265 ft 446 kts 330°
2026-05-06 18:29 41.13307 43.75942 30567 ft 442 kts 321°
2026-05-06 18:29 41.15636 43.73501 30852 ft 437 kts 311°
2026-05-06 18:30 41.17051 43.71549 31055 ft 435 kts 305°
2026-05-06 18:30 41.19328 43.67203 31438 ft 431 kts 296°
2026-05-06 18:30 41.20408 43.64912 31613 ft 436 kts 301°
2026-05-06 18:30 41.23007 43.60790 31995 ft 440 kts 304°
2026-05-06 18:31 41.24833 43.57546 32382 ft 438 kts 300°
2026-05-06 18:31 41.26519 43.54174 32780 ft 436 kts 297°
2026-05-06 18:31 41.28049 43.50939 33119 ft 436 kts 297°
2026-05-06 18:31 41.29666 43.47506 33478 ft 437 kts 297°
2026-05-06 18:32 41.31314 43.44095 33841 ft 438 kts 298°
2026-05-06 18:32 41.33003 43.40713 34135 ft 441 kts 299°
2026-05-06 18:32 41.36282 43.34368 34133 ft 431 kts 300°
2026-05-06 18:33 41.39665 43.27851 34142 ft 425 kts 299°
2026-05-06 18:33 41.42370 43.22543 34136 ft 424 kts 299°
2026-05-06 18:34 41.45688 43.15937 34142 ft 428 kts 299°
2026-05-06 18:34 41.48986 43.09382 34141 ft 425 kts 299°
2026-05-06 18:35 41.52279 43.02824 34140 ft 425 kts 300°
2026-05-06 18:35 41.56134 42.95171 34152 ft 425 kts 300°
2026-05-06 18:36 41.58694 42.90098 34154 ft 425 kts 300°
2026-05-06 18:36 41.61969 42.83530 34153 ft 425 kts 300°
2026-05-06 18:37 41.65243 42.76978 34160 ft 424 kts 300°
2026-05-06 18:37 41.68545 42.70461 34151 ft 424 kts 301°
2026-05-06 18:38 41.71827 42.64029 34158 ft 424 kts 300°
2026-05-06 18:38 41.75084 42.57447 34151 ft 424 kts 300°
2026-05-06 18:39 41.78339 42.50846 34147 ft 424 kts 301°
2026-05-06 18:40 41.83274 42.40995 34147 ft 424 kts 301°
2026-05-06 18:40 41.86553 42.34428 34139 ft 424 kts 301°
2026-05-06 18:41 41.89821 42.27836 34142 ft 425 kts 301°
2026-05-06 18:41 41.93086 42.21208 34143 ft 425 kts 301°
2026-05-06 18:42 41.96346 42.14574 34139 ft 426 kts 301°
2026-05-06 18:42 41.99567 42.07999 34141 ft 427 kts 301°
2026-05-06 18:43 42.02836 42.01310 34139 ft 427 kts 301°
2026-05-06 18:43 42.06074 41.94681 34138 ft 427 kts 301°
2026-05-06 18:44 42.09332 41.87996 34141 ft 428 kts 301°
2026-05-06 18:44 42.12593 41.81286 34142 ft 428 kts 301°
2026-05-06 18:45 42.15851 41.74564 34135 ft 429 kts 301°
2026-05-06 18:45 42.19099 41.67846 34128 ft 429 kts 301°
2026-05-06 18:46 42.22364 41.61079 34139 ft 429 kts 301°
2026-05-06 18:46 42.25609 41.54339 34129 ft 430 kts 301°
2026-05-06 18:47 42.28878 41.47532 33872 ft 432 kts 302°
2026-05-06 18:47 42.30504 41.44140 33601 ft 431 kts 302°
2026-05-06 18:47 42.32133 41.40738 33331 ft 429 kts 302°
2026-05-06 18:47 42.33751 41.37357 33061 ft 427 kts 302°
2026-05-06 18:48 42.35329 41.34056 32804 ft 426 kts 302°
2026-05-06 18:48 42.36933 41.30696 32539 ft 424 kts 302°
2026-05-06 18:48 42.38537 41.27339 32279 ft 423 kts 302°
2026-05-06 18:48 42.40117 41.24057 32023 ft 421 kts 303°
2026-05-06 18:49 42.41751 41.20723 31766 ft 419 kts 303°
2026-05-06 18:49 42.43354 41.17446 31514 ft 418 kts 304°
2026-05-06 18:49 42.44944 41.14156 31258 ft 417 kts 303°
2026-05-06 18:49 42.46472 41.10829 31013 ft 416 kts 302°
2026-05-06 18:50 42.47966 41.07475 30786 ft 415 kts 302°
2026-05-06 18:50 42.49458 41.04131 30533 ft 413 kts 302°
2026-05-06 18:50 42.50954 41.00845 30157 ft 408 kts 303°
2026-05-06 18:50 42.52487 40.97636 29676 ft 403 kts 305°
2026-05-06 18:51 42.54055 40.94502 29152 ft 399 kts 307°
2026-05-06 18:51 42.55685 40.91491 28714 ft 393 kts 308°
2026-05-06 18:51 42.57243 40.88635 28248 ft 390 kts 308°
2026-05-06 18:51 42.58806 40.85657 27821 ft 386 kts 306°
2026-05-06 18:52 42.60301 40.82658 27325 ft 384 kts 305°
2026-05-06 18:52 42.61747 40.79632 26914 ft 379 kts 304°
2026-05-06 18:52 42.63122 40.76602 26450 ft 377 kts 301°
2026-05-06 18:52 42.64353 40.73473 25993 ft 375 kts 299°
2026-05-06 18:53 42.65558 40.70317 25531 ft 373 kts 299°
2026-05-06 18:53 42.66787 40.67249 25090 ft 370 kts 301°
2026-05-06 18:53 42.68085 40.64222 24621 ft 369 kts 303°
2026-05-06 18:53 42.69431 40.61253 24155 ft 367 kts 304°
2026-05-06 18:54 42.70801 40.58328 23619 ft 368 kts 304°
2026-05-06 18:54 42.72168 40.55443 23051 ft 368 kts 304°
2026-05-06 18:54 42.73564 40.52497 22662 ft 362 kts 304°
2026-05-06 18:54 42.74901 40.49661 22194 ft 361 kts 304°
2026-05-06 18:55 42.76229 40.46825 21736 ft 359 kts 303°
2026-05-06 18:55 42.77578 40.43926 21278 ft 357 kts 303°
2026-05-06 18:55 42.78881 40.41116 20827 ft 356 kts 303°
2026-05-06 18:55 42.80217 40.38229 20357 ft 354 kts 303°
2026-05-06 18:56 42.81530 40.35388 19894 ft 353 kts 303°
2026-05-06 18:56 42.82831 40.32572 19451 ft 352 kts 303°
2026-05-06 18:56 42.84127 40.29769 19004 ft 351 kts 303°
2026-05-06 18:56 42.85433 40.26941 18566 ft 350 kts 303°
2026-05-06 18:57 42.86723 40.24147 18084 ft 348 kts 303°
2026-05-06 18:57 42.88012 40.21352 17639 ft 346 kts 303°
2026-05-06 18:57 42.89271 40.18622 17206 ft 343 kts 303°
2026-05-06 18:57 42.90550 40.15847 16781 ft 341 kts 303°
2026-05-06 18:58 42.91813 40.13106 16360 ft 339 kts 303°
2026-05-06 18:58 42.93050 40.10417 15863 ft 340 kts 302°
2026-05-06 18:58 42.94318 40.07662 15502 ft 336 kts 302°
2026-05-06 18:58 42.95538 40.05005 15104 ft 334 kts 302°
2026-05-06 18:59 42.96781 40.02302 14501 ft 339 kts 302°
2026-05-06 18:59 42.98035 39.99544 13983 ft 341 kts 299°
2026-05-06 18:59 42.98813 39.96558 13557 ft 336 kts 275°
2026-05-06 18:59 42.98730 39.93392 13231 ft 329 kts 266°
2026-05-06 19:00 42.98909 39.90313 12858 ft 324 kts 285°
2026-05-06 19:00 42.99775 39.87490 12435 ft 321 kts 300°
2026-05-06 19:00 43.00852 39.84836 12041 ft 319 kts 297°
2026-05-06 19:00 43.01841 39.82140 11634 ft 316 kts 296°
2026-05-06 19:01 43.02785 39.79440 11211 ft 314 kts 296°
2026-05-06 19:01 43.03577 39.76672 10825 ft 312 kts 286°
2026-05-06 19:01 43.04168 39.73855 10634 ft 302 kts 287°
2026-05-06 19:01 43.04763 39.71159 10475 ft 292 kts 288°
2026-05-06 19:02 43.05361 39.68508 10153 ft 289 kts 288°
2026-05-06 19:02 43.05948 39.65925 9576 ft 284 kts 288°
2026-05-06 19:02 43.06529 39.63370 9045 ft 277 kts 288°
2026-05-06 19:02 43.07149 39.60928 8654 ft 279 kts 298°
2026-05-06 19:03 43.08329 39.58863 7900 ft 276 kts 321°
2026-05-06 19:03 43.10006 39.57692 7208 ft 272 kts 352°
2026-05-06 19:03 43.11868 39.57791 6558 ft 268 kts
2026-05-06 19:03 43.13627 39.58590 5900 ft 265 kts 29°
2026-05-06 19:04 43.14986 39.60183 5525 ft 253 kts 51°
2026-05-06 19:04 43.15990 39.62083 5206 ft 242 kts 53°
2026-05-06 19:04 43.16967 39.63987 4885 ft 245 kts 54°
2026-05-06 19:04 43.17918 39.65933 4476 ft 245 kts 56°
2026-05-06 19:05 43.18848 39.67877 4146 ft 244 kts 56°
2026-05-06 19:05 43.19780 39.69808 3819 ft 242 kts 56°
2026-05-06 19:05 43.20715 39.71718 3487 ft 241 kts 56°
2026-05-06 19:05 43.21654 39.73617 3128 ft 240 kts 56°
2026-05-06 19:06 43.22596 39.75507 2762 ft 239 kts 56°
2026-05-06 19:06 43.23508 39.77328 2664 ft 227 kts 56°
2026-05-06 19:06 43.24392 39.79089 2607 ft 214 kts 56°
2026-05-06 19:06 43.25284 39.80639 2565 ft 211 kts 44°
2026-05-06 19:07 43.26482 39.81771 2517 ft 211 kts 29°
2026-05-06 19:07 43.27351 39.82417 2484 ft 211 kts 29°
2026-05-06 19:07 43.29057 39.83688 2380 ft 210 kts 29°
2026-05-06 19:07 43.30333 39.84642 2277 ft 206 kts 29°
2026-05-06 19:08 43.31567 39.85564 2182 ft 198 kts 29°
2026-05-06 19:08 43.32750 39.86449 2114 ft 187 kts 29°
2026-05-06 19:08 43.33847 39.87269 2040 ft 173 kts 29°
2026-05-06 19:08 43.34863 39.88030 1910 ft 163 kts 29°
2026-05-06 19:09 43.35805 39.88735 1714 ft 148 kts 29°
2026-05-06 19:09 43.36683 39.89394 1526 ft 143 kts 29°
2026-05-06 19:09 43.37546 39.90040 1337 ft 139 kts 28°
2026-05-06 19:09 43.38395 39.90677 1155 ft 138 kts 28°
2026-05-06 19:10 43.39213 39.91290 985 ft 137 kts 28°
2026-05-06 19:10 43.39519 39.91519 918 ft 137 kts 28°
2026-05-06 19:11 43.40370 39.91875 716 ft 135 kts 346°
2026-05-06 19:11 43.41253 39.92062 556 ft 142 kts 45°
2026-05-06 19:11 43.41991 39.92954 1064 ft 154 kts 34°
2026-05-06 19:11 43.42582 39.93557 1485 ft 167 kts 43°
2026-05-06 19:12 43.43292 39.95385 2712 ft 167 kts 70°
2026-05-06 19:12 43.43634 39.97023 3337 ft 195 kts 82°
2026-05-06 19:12 43.43731 39.98958 4160 ft 207 kts 88°
2026-05-06 19:12 43.43691 40.00968 5199 ft 216 kts 94°
2026-05-06 19:13 43.43335 40.03137 5807 ft 260 kts 116°
2026-05-06 19:13 43.42079 40.04994 5974 ft 261 kts 152°
2026-05-06 19:13 43.40409 40.05462 6004 ft 240 kts 190°
2026-05-06 19:13 43.39367 40.05002 6015 ft 228 kts 207°
2026-05-06 19:14 43.37980 40.03989 6004 ft 224 kts 207°
2026-05-06 19:14 43.36601 40.02995 6004 ft 224 kts 209°
2026-05-06 19:14 43.35257 40.01961 6021 ft 224 kts 211°
2026-05-06 19:14 43.33906 40.00885 6003 ft 224 kts 211°
2026-05-06 19:15 43.32564 39.99811 6008 ft 224 kts 211°
2026-05-06 19:15 43.31203 39.98748 6011 ft 225 kts 210°
2026-05-06 19:15 43.29836 39.97723 6016 ft 225 kts 210°
2026-05-06 19:15 43.28455 39.96712 6001 ft 225 kts 207°
2026-05-06 19:16 43.27046 39.95771 6011 ft 225 kts 206°
2026-05-06 19:16 43.25631 39.94857 6016 ft 225 kts 207°
2026-05-06 19:16 43.24228 39.93897 6002 ft 225 kts 208°
2026-05-06 19:16 43.22846 39.92884 5975 ft 225 kts 210°
2026-05-06 19:17 43.21494 39.91838 5689 ft 223 kts 211°
2026-05-06 19:17 43.20138 39.90814 5401 ft 222 kts 208°
2026-05-06 19:17 43.18770 39.89836 5116 ft 220 kts 208°
2026-05-06 19:17 43.17417 39.88861 4838 ft 219 kts 208°
2026-05-06 19:18 43.16082 39.87877 4554 ft 218 kts 209°
2026-05-06 19:18 43.14759 39.86881 4268 ft 216 kts 209°
2026-05-06 19:18 43.13464 39.85850 3981 ft 215 kts 217°
2026-05-06 19:18 43.12509 39.84322 3707 ft 212 kts 245°
2026-05-06 19:19 43.12203 39.82374 3421 ft 211 kts 274°
2026-05-06 19:19 43.12626 39.80479 3122 ft 210 kts 303°
2026-05-06 19:19 43.13667 39.79111 2832 ft 209 kts 332°
2026-05-06 19:19 43.15060 39.78620 2534 ft 208 kts
2026-05-06 19:20 43.16459 39.79071 2240 ft 208 kts 22°
2026-05-06 19:20 43.17824 39.79684 2016 ft 206 kts 16°
2026-05-06 19:20 43.19218 39.80198 2007 ft 208 kts 15°
2026-05-06 19:20 43.20622 39.80697 2008 ft 209 kts 15°
2026-05-06 19:21 43.22025 39.81199 2009 ft 209 kts 15°
2026-05-06 19:21 43.23435 39.81709 2008 ft 209 kts 14°
2026-05-06 19:21 43.24840 39.82165 2013 ft 209 kts 13°
2026-05-06 19:21 43.26252 39.82627 2008 ft 208 kts 14°
2026-05-06 19:22 43.27638 39.83125 2000 ft 200 kts 14°
2026-05-06 19:22 43.28925 39.83723 2002 ft 192 kts 24°
2026-05-06 19:22 43.30116 39.84512 2009 ft 187 kts 28°
2026-05-06 19:22 43.31182 39.85286 2024 ft 161 kts 29°
2026-05-06 19:23 43.32113 39.85977 2038 ft 148 kts 29°
2026-05-06 19:23 43.32994 39.86637 1999 ft 144 kts 30°
2026-05-06 19:23 43.33878 39.87298 1991 ft 140 kts 29°
2026-05-06 19:23 43.34731 39.87934 1894 ft 139 kts 29°
2026-05-06 19:24 43.35575 39.88564 1760 ft 138 kts 29°
2026-05-06 19:24 43.36413 39.89192 1589 ft 137 kts 29°
2026-05-06 19:24 43.37251 39.89819 1403 ft 137 kts 28°
2026-05-06 19:24 43.38089 39.90447 1224 ft 137 kts 28°
2026-05-06 19:25 43.38926 39.91074 1041 ft 137 kts 28°
2026-05-06 19:25 43.39760 39.91699 858 ft 136 kts 28°
2026-05-06 19:25 43.40591 39.92323 694 ft 136 kts 28°
2026-05-06 19:25 43.41427 39.92925 516 ft 135 kts 28°
2026-05-06 19:26 43.42253 39.93543 341 ft 135 kts 26°
2026-05-06 19:26 43.43076 39.94169 163 ft 135 kts 29°
2026-05-06 19:26 43.43872 39.94752 44 ft 115 kts 32°
2026-05-06 19:26 43.44420 39.95205 40 ft 72 kts 28°
2026-05-06 19:27 43.44600 39.95278 40 ft 11 kts 11°
2026-05-06 19:27 43.44665 39.95290 40 ft 0 kts
2026-05-06 19:28 43.44677 39.95280 40 ft 9 kts 321°
2026-05-06 19:28 43.44676 39.95268 41 ft 4 kts 262°
2026-05-06 19:28 43.44658 39.95190 42 ft 11 kts 251°
2026-05-06 19:28 43.44644 39.95150 43 ft 0 kts 244°
2026-05-06 19:30 43.44643 39.95146 43 ft 4 kts 244°
2026-05-06 19:31 43.44587 39.94991 46 ft 23 kts 246°
2026-05-06 19:31 43.44524 39.94794 50 ft 23 kts 245°
2026-05-06 19:31 43.44383 39.94385 52 ft 8 kts 253°
2026-05-06 19:32 43.44402 39.94324 51 ft 7 kts 318°
2026-05-06 19:32 43.44426 39.94309 52 ft 0 kts 335°
2026-05-06 19:32 43.44467 39.94283 51 ft 16 kts 334°
2026-05-06 19:33 43.44580 39.94210 60 ft 11 kts 329°
2026-05-06 19:33 43.44653 39.94152 69 ft 22 kts 333°
2026-05-06 19:33 43.44714 39.94109 68 ft 5 kts 333°
2026-05-06 19:33 43.44717 39.94107 68 ft 0 kts 335°